<?xml version="1.0"?>
<gpx xmlns="http://www.topografix.com/GPX/1/1" xmlns:xsi="http://www.w3.org/2001/XMLSchema-instance" version="1.1" creator="GPX RubyGem 1.0.0 -- http://dougfales.github.io/gpx/" xsi:schemaLocation="http://www.topografix.com/GPX/1/1 http://www.topografix.com/GPX/1/1/gpx.xsd">
  <metadata>
    <name/>
    <time>2026-05-09T03:40:55+00:00</time>
    <bound minlat="90.0" minlon="180.0" maxlat="-90.0" maxlon="-180.0"/>
  </metadata>
  <trk>
    <name/>
    <trkseg>
      <trkpt lat="48.747328" lon="10.112299">
        <time>1970-01-01T00:00:00+00:00</time>
        <ele>532.0</ele>
      </trkpt>
      <trkpt lat="48.747389" lon="10.112697">
        <time>1970-01-01T00:00:00+00:00</time>
        <ele>534.0</ele>
      </trkpt>
      <trkpt lat="48.747453" lon="10.112927">
        <time>1970-01-01T00:00:00+00:00</time>
        <ele>534.0</ele>
      </trkpt>
      <trkpt lat="48.747493" lon="10.113358">
        <time>1970-01-01T00:00:00+00:00</time>
        <ele>532.0</ele>
      </trkpt>
      <trkpt lat="48.747093" lon="10.112921">
        <time>1970-01-01T00:00:00+00:00</time>
        <ele>532.0</ele>
      </trkpt>
      <trkpt lat="48.747051" lon="10.11284">
        <time>1970-01-01T00:00:00+00:00</time>
        <ele>532.0</ele>
      </trkpt>
      <trkpt lat="48.747027" lon="10.11274">
        <time>1970-01-01T00:00:00+00:00</time>
        <ele>532.0</ele>
      </trkpt>
      <trkpt lat="48.747006" lon="10.112629">
        <time>1970-01-01T00:00:00+00:00</time>
        <ele>533.0</ele>
      </trkpt>
      <trkpt lat="48.747006" lon="10.112629">
        <time>1970-01-01T00:00:00+00:00</time>
        <ele>533.0</ele>
      </trkpt>
      <trkpt lat="48.747027" lon="10.11274">
        <time>1970-01-01T00:00:00+00:00</time>
        <ele>532.0</ele>
      </trkpt>
      <trkpt lat="48.747051" lon="10.11284">
        <time>1970-01-01T00:00:00+00:00</time>
        <ele>532.0</ele>
      </trkpt>
      <trkpt lat="48.747093" lon="10.112921">
        <time>1970-01-01T00:00:00+00:00</time>
        <ele>532.0</ele>
      </trkpt>
      <trkpt lat="48.747493" lon="10.113358">
        <time>1970-01-01T00:00:00+00:00</time>
        <ele>532.0</ele>
      </trkpt>
      <trkpt lat="48.747453" lon="10.112927">
        <time>1970-01-01T00:00:00+00:00</time>
        <ele>534.0</ele>
      </trkpt>
      <trkpt lat="48.747389" lon="10.112697">
        <time>1970-01-01T00:00:00+00:00</time>
        <ele>534.0</ele>
      </trkpt>
      <trkpt lat="48.747328" lon="10.112299">
        <time>1970-01-01T00:00:00+00:00</time>
        <ele>532.0</ele>
      </trkpt>
    </trkseg>
  </trk>
</gpx>
